| time (UTC) | temp C | wind direction | speed KPH | gust KPH | rain 1hr cm | rain 24hr cm | rain mn cm | humidity % | barometer mb |
| 20260902060045 | 23 | 227 | 1.6 | 4.8 | 0.00 | 0.00 | 0.00 | 91 | 1011.1 |
| 20260902054540 | 23 | 234 | 0.0 | 0.0 | 0.00 | 0.00 | 0.00 | 91 | 1011.3 |
| 20260902053034 | 23 | 234 | 0.0 | 1.6 | 0.00 | 0.00 | 0.00 | 91 | 1011.3 |
| 20260902051533 | 23 | 234 | 0.0 | 1.6 | 0.00 | 0.00 | 0.00 | 91 | 1011.5 |
| 20260902050038 | 23 | 234 | 1.6 | 4.8 | 0.00 | 0.00 | 0.00 | 91 | 1011.2 |
| 20260902044524 | 23 | 254 | 0.0 | 3.2 | 0.00 | 0.00 | 0.00 | 91 | 1011.2 |
| 20260902043020 | 23 | 224 | 0.0 | 3.2 | 0.00 | 0.00 | 0.00 | 91 | 1011.2 |
| 20260902041522 | 23 | 217 | 0.0 | 4.8 | 0.00 | 0.00 | 0.00 | 91 | 1011.3 |
| 20260902040014 | 23 | 225 | 0.0 | 6.4 | 0.00 | 0.00 | 0.00 | 92 | 1011.3 |
| 20260902034510 | 23 | 198 | 3.2 | 6.4 | 0.00 | 0.00 | 0.00 | 92 | 1011.0 |
| 20260902033009 | 23 | 229 | 1.6 | 6.4 | 0.00 | 0.00 | 0.00 | 92 | 1011.0 |
| 20260902031508 | 22 | 134 | 0.0 | 0.0 | 0.00 | 0.00 | 0.00 | 92 | 1011.2 |
| 20260902030009 | 22 | 134 | 0.0 | 0.0 | 0.00 | 0.00 | 0.00 | 91 | 1011.2 |
| 20260902024508 | 23 | 134 | 0.0 | 0.0 | 0.00 | 0.00 | 0.00 | 91 | 1011.2 |
| 20260902023007 | 23 | 134 | 0.0 | 3.2 | 0.00 | 0.00 | 0.00 | 91 | 1011.2 |
| 20260902021513 | 23 | 134 | 0.0 | 4.8 | 0.00 | 0.00 | 0.00 | 90 | 1011.2 |
| 20260902020006 | 23 | 134 | 3.2 | 6.4 | 0.00 | 0.00 | 0.00 | 90 | 1011.2 |
| 20260902014506 | 23 | 138 | 0.0 | 1.6 | 0.00 | 0.00 | 0.00 | 90 | 1011.3 |
| 20260902013005 | 23 | 134 | 3.2 | 6.4 | 0.00 | 0.00 | 0.00 | 89 | 1011.3 |
| 20260902011505 | 23 | 152 | 1.6 | 4.8 | 0.00 | 0.00 | 0.00 | 89 | 1011.1 |
| 20260902010012 | 23 | 103 | 1.6 | 6.4 | 0.00 | 0.00 | 0.00 | 89 | 1010.8 |
| 20260902004507 | 24 | 103 | 0.0 | 6.4 | 0.00 | 0.00 | 0.00 | 88 | 1010.8 |
| 20260902003003 | 24 | 107 | 1.6 | 4.8 | 0.00 | 0.00 | 0.00 | 88 | 1010.8 |
| 20260902001503 | 24 | 119 | 3.2 | 6.4 | 0.00 | 0.00 | 0.00 | 87 | 1010.7 |
| 20260902000004 | 25 | 127 | 3.2 | 6.4 | 0.00 | 0.00 | 0.00 | 85 | 1010.9 |
| 20260901234502 | 25 | 109 | 3.2 | 9.7 | 0.00 | 0.00 | 0.00 | 85 | 1010.9 |
| 20260901233001 | 26 | 123 | 4.8 | 11.3 | 0.00 | 0.00 | 0.00 | 84 | 1010.9 |
| 20260901231501 | 26 | 123 | 6.4 | 14.5 | 0.00 | 0.00 | 0.00 | 82 | 1011.0 |
| 20260901230114 | 26 | 98 | 9.7 | 16.1 | 0.00 | 0.00 | 0.00 | 81 | 1011.2 |
| 20260901224602 | 27 | 98 | 8.0 | 14.5 | 0.00 | 0.00 | 0.00 | 81 | 1011.1 |
| 20260901223101 | 27 | 133 | 6.4 | 12.9 | 0.00 | 0.00 | 0.00 | 79 | 1010.9 |
| 20260901221601 | 27 | 80 | 4.8 | 12.9 | 0.00 | 0.00 | 0.00 | 79 | 1011.1 |
| 20260901220057 | 27 | 125 | 6.4 | 14.5 | 0.00 | 0.00 | 0.00 | 80 | 1011.0 |
| 20260901214605 | 27 | 137 | 6.4 | 14.5 | 0.00 | 0.00 | 0.00 | 79 | 1010.9 |
| 20260901213134 | 27 | 123 | 9.7 | 16.1 | 0.00 | 0.00 | 0.00 | 78 | 1010.9 |
| 20260901211554 | 28 | 124 | 8.0 | 16.1 | 0.00 | 0.00 | 0.00 | 78 | 1010.9 |
| 20260901210055 | 28 | 150 | 8.0 | 14.5 | 0.00 | 0.00 | 0.00 | 77 | 1011.0 |
| 20260901204553 | 28 | 117 | 4.8 | 12.9 | 0.00 | 0.00 | 0.00 | 77 | 1011.1 |
| 20260901203116 | 28 | 96 | 3.2 | 11.3 | 0.00 | 0.00 | 0.00 | 79 | 1011.2 |
| 20260901201558 | 28 | 136 | 4.8 | 11.3 | 0.00 | 0.00 | 0.00 | 78 | 1011.3 |
| 20260901200052 | 27 | 92 | 6.4 | 12.9 | 0.00 | 0.00 | 0.00 | 79 | 1011.2 |
| 20260901194600 | 28 | 144 | 6.4 | 14.5 | 0.00 | 0.03 | 0.00 | 78 | 1011.3 |
| 20260901193051 | 29 | 65 | 9.7 | 14.5 | 0.00 | 0.03 | 0.00 | 75 | 1011.3 |
| 20260901191609 | 29 | 289 | 0.0 | 4.8 | 0.00 | 0.03 | 0.00 | 73 | 1011.2 |
| 20260901190050 | 29 | 269 | 3.2 | 8.0 | 0.00 | 0.03 | 0.00 | 72 | 1011.6 |
| 20260901184549 | 30 | 207 | 1.6 | 6.4 | 0.00 | 0.03 | 0.00 | 70 | 1011.8 |
| 20260901183053 | 30 | 287 | 1.6 | 6.4 | 0.00 | 0.03 | 0.00 | 72 | 1011.8 |
| 20260901181544 | 30 | 295 | 0.0 | 8.0 | 0.00 | 0.03 | 0.00 | 75 | 1011.9 |
| 20260901180044 | 28 | 200 | 0.0 | 9.7 | 0.00 | 0.03 | 0.00 | 78 | 1012.1 |
| 20260901174543 | 28 | 244 | 3.2 | 9.7 | 0.00 | 0.15 | 0.00 | 77 | 1012.0 |
| 20260901173046 | 28 | 249 | 1.6 | 11.3 | 0.00 | 0.15 | 0.00 | 76 | 1012.0 |
| 20260901171546 | 28 | 298 | 0.0 | 8.0 | 0.00 | 0.15 | 0.00 | 80 | 1012.2 |
| 20260901170039 | 28 | 289 | 0.0 | 12.9 | 0.00 | 0.15 | 0.00 | 78 | 1012.2 |
| 20260901164546 | 28 | 259 | 1.6 | 14.5 | 0.00 | 0.18 | 0.00 | 79 | 1012.3 |
| 20260901163039 | 27 | 292 | 4.8 | 11.3 | 0.00 | 0.18 | 0.00 | 79 | 1012.4 |
| 20260901161546 | 27 | 248 | 4.8 | 12.9 | 0.00 | 0.18 | 0.00 | 79 | 1012.4 |
| 20260901160032 | 26 | 268 | 0.0 | 11.3 | 0.00 | 0.18 | 0.00 | 80 | 1012.4 |
| 20260901154530 | 26 | 200 | 1.6 | 4.8 | 0.00 | 0.41 | 0.00 | 81 | 1012.5 |
| 20260901153041 | 26 | 291 | 0.0 | 4.8 | 0.00 | 0.41 | 0.00 | 83 | 1012.4 |
| 20260901151528 | 26 | 285 | 1.6 | 6.4 | 0.00 | 0.41 | 0.00 | 82 | 1012.6 |
| 20260901150026 | 26 | 246 | 4.8 | 9.7 | 0.00 | 0.41 | 0.00 | 80 | 1012.6 |
| 20260901144527 | 26 | 296 | 0.0 | 8.0 | 0.00 | 0.84 | 0.00 | 84 | 1012.7 |
| 20260901143018 | 25 | 280 | 1.6 | 11.3 | 0.00 | 0.84 | 0.00 | 85 | 1012.6 |
| 20260901141515 | 25 | 279 | 3.2 | 12.9 | 0.00 | 0.84 | 0.00 | 86 | 1012.4 |
| 20260901140012 | 24 | 210 | 1.6 | 11.3 | 0.00 | 0.84 | 0.00 | 89 | 1012.4 |
| 20260901134508 | 23 | 293 | 0.0 | 8.0 | 0.00 | 0.84 | 0.00 | 92 | 1012.4 |
| 20260901133004 | 22 | 294 | 0.0 | 4.8 | 0.00 | 0.84 | 0.00 | 93 | 1012.5 |
| 20260901131600 | 22 | 247 | 0.0 | 3.2 | 0.00 | 0.84 | 0.00 | 93 | 1012.6 |
| 20260901130057 | 21 | 221 | 0.0 | 1.6 | 0.00 | 0.84 | 0.00 | 94 | 1012.4 |
| 20260901124556 | 21 | 221 | 0.0 | 4.8 | 0.00 | 0.84 | 0.00 | 94 | 1012.5 |
| 20260901123053 | 21 | 232 | 0.0 | 4.8 | 0.00 | 0.84 | 0.00 | 94 | 1012.5 |
| 20260901121549 | 20 | 232 | 1.6 | 4.8 | 0.00 | 0.84 | 0.00 | 94 | 1012.3 |
| 20260901120050 | 20 | 223 | 1.6 | 4.8 | 0.00 | 0.84 | 0.00 | 94 | 1012.3 |
| 20260901114544 | 20 | 247 | 0.0 | 3.2 | 0.00 | 0.91 | 0.00 | 94 | 1012.0 |
| 20260901113042 | 20 | 247 | 0.0 | 0.0 | 0.00 | 0.91 | 0.00 | 94 | 1011.9 |
| 20260901111539 | 19 | 247 | 0.0 | 0.0 | 0.00 | 0.91 | 0.00 | 93 | 1011.7 |
| 20260901110038 | 19 | 247 | 0.0 | 0.0 | 0.00 | 0.91 | 0.00 | 93 | 1011.5 |
| 20260901104541 | 19 | 253 | 0.0 | 1.6 | 0.00 | 1.24 | 0.00 | 93 | 1011.5 |
| 20260901103036 | 19 | 253 | 0.0 | 0.0 | 0.00 | 1.24 | 0.00 | 93 | 1011.2 |
| 20260901101546 | 19 | 253 | 0.0 | 1.6 | 0.00 | 1.24 | 0.00 | 93 | 1011.2 |
| 20260901100036 | 19 | 253 | 0.0 | 0.0 | 0.00 | 1.24 | 0.00 | 93 | 1011.2 |
| 20260901094539 | 19 | 253 | 0.0 | 0.0 | 0.00 | 1.32 | 0.00 | 93 | 1011.2 |
| 20260901093034 | 19 | 253 | 0.0 | 1.6 | 0.00 | 1.32 | 0.00 | 93 | 1011.2 |
| 20260901091534 | 19 | 253 | 0.0 | 0.0 | 0.00 | 1.32 | 0.00 | 93 | 1011.1 |
| 20260901090033 | 19 | 253 | 0.0 | 0.0 | 0.00 | 1.32 | 0.00 | 93 | 1011.1 |
| 20260901084532 | 19 | 253 | 0.0 | 0.0 | 0.00 | 1.32 | 0.00 | 92 | 1011.2 |
| 20260901083033 | 19 | 253 | 0.0 | 0.0 | 0.00 | 1.32 | 0.00 | 92 | 1010.9 |
| 20260901081532 | 19 | 253 | 0.0 | 0.0 | 0.00 | 1.32 | 0.00 | 92 | 1010.9 |
| 20260901080032 | 19 | 253 | 0.0 | 0.0 | 0.00 | 1.32 | 0.00 | 92 | 1010.8 |
| 20260901074542 | 19 | 253 | 0.0 | 0.0 | 0.00 | 1.32 | 0.00 | 92 | 1010.8 |
| 20260901073027 | 19 | 253 | 0.0 | 0.0 | 0.00 | 1.32 | 0.00 | 92 | 1010.9 |
| 20260901071527 | 19 | 253 | 0.0 | 3.2 | 0.00 | 1.32 | 0.00 | 92 | 1011.0 |
| 20260901070025 | 20 | 253 | 0.0 | 3.2 | 0.00 | 1.32 | 0.00 | 92 | 1011.0 |
| 20260901064524 | 20 | 252 | 0.0 | 0.0 | 0.00 | 1.32 | 0.00 | 91 | 1010.9 |
| 20260901063023 | 20 | 252 | 0.0 | 1.6 | 0.00 | 1.32 | 0.00 | 91 | 1010.9 |
| 20260901061521 | 20 | 219 | 1.6 | 4.8 | 0.00 | 1.32 | 0.00 | 91 | 1010.9 |